Overview Statistics Trail Chart Weather Telemetry Raw packets
 

This is the latest recevied weather packets stored in our database for station/object 4S6DRJ-13. If no packets are shown the sender has not sent any weather packets the latest 10 day(s).

<< 388 389 390 391 392 393 394 >>
Time Temp. Humidity Pressure Rain* Wind** Luminosity Snow
1787876894 27.78° C 86% 1009.6 hPa 0 mm 0.89 m/s, 227° 1 W/m² -
1787876833 27.78° C 86% 1009.4 hPa 0 mm 0.45 m/s, 228° 1 W/m² -
1787876772 27.78° C 86% 1009.6 hPa 0 mm 0 m/s 0 W/m² -
1787876711 27.78° C 86% 1009.5 hPa 0 mm 0.89 m/s, 273° 0 W/m² -
1787876650 27.78° C 86% 1009.5 hPa 0 mm 1.34 m/s, 255° 0 W/m² -
1787876589 27.78° C 86% 1009.6 hPa 0 mm 0.89 m/s, 189° 0 W/m² -
1787876528 27.78° C 86% 1009.6 hPa 0 mm 0.45 m/s, 228° 0 W/m² -
1787876468 27.78° C 86% 1009.6 hPa 0 mm 0.45 m/s, 233° 0 W/m² -
1787876406 27.78° C 86% 1009.4 hPa 0 mm 0.45 m/s, 227° 0 W/m² -
1787876346 27.78° C 86% 1009.5 hPa 0 mm 0.89 m/s, 248° 0 W/m² -
1787876285 27.78° C 86% 1009.3 hPa 0 mm 0.45 m/s, 230° 0 W/m² -
1787876223 27.78° C 86% 1009.5 hPa 0 mm 0.89 m/s, 235° 0 W/m² -
1787876162 27.78° C 86% 1009.3 hPa 0 mm 0.45 m/s, 231° 0 W/m² -
1787876101 27.78° C 86% 1009.4 hPa 0 mm 0.89 m/s, 258° 0 W/m² -
1787876040 27.78° C 86% 1009.3 hPa 0 mm 0.89 m/s, 194° 0 W/m² -
1787875980 27.78° C 86% 1009.4 hPa 0 mm 1.34 m/s, 202° 0 W/m² -
1787875919 27.78° C 86% 1009.3 hPa 0 mm 2.68 m/s, 249° 0 W/m² -
1787875858 27.78° C 86% 1009.2 hPa 0 mm 1.79 m/s, 277° 0 W/m² -
1787875796 27.78° C 86% 1009.1 hPa 0 mm 0.89 m/s, 236° 0 W/m² -
1787875735 27.78° C 86% 1009.3 hPa 0 mm 0 m/s 0 W/m² -
1787875675 27.78° C 86% 1009.3 hPa 0 mm 0.89 m/s, 232° 0 W/m² -
1787875613 27.78° C 86% 1009.3 hPa 0 mm 0 m/s 0 W/m² -
1787875553 27.78° C 86% 1009.3 hPa 0 mm 0.45 m/s, 229° 0 W/m² -
1787875491 27.78° C 86% 1009.4 hPa 0 mm 0.45 m/s, 215° 0 W/m² -
1787875431 27.78° C 86% 1009.2 hPa 0 mm 0.45 m/s, 204° 0 W/m² -

* Rain latest hour (hover to see other rain measurements)
** Current wind speed in m/s (hover to see current wind gust speed)